EXACTVIEW-1 (ADS-1B)

Last updated on Sat Oct 18 2025 00:02:32 GMT+0000 (Coordinated Universal Time)

1 38709U 12039C 25290.56741154 .00000254 00000+0 12855-3 0 9997 2 38709 98.9610 37.7911 0011515 146.6799 213.5107 14.24872507688152
UTC large
Height (km)
Speed (km/s)
/
Latitude / Longitude
Inclination (degrees)
Orbital Period (minutes)
Azimuth
Elevation
Range (km)
Doppler Factor

Next 0 passes for location: London (51.5072 / 0.1276)

Sorry there are no passes over London.